Indianapolis International Airport Indianapolis US
ICAO: KIND
IATA: IND
Category: Large
Scheduled Services: Yes

Elevation: 797 ft
TransAlt. 18000 ft.

Airport Communications:
APP:119.3
ATIS:134.25
CLNC DEL:128.75
DEP:119.05
GND:121.8
TERRE HAUTE RDO:122.55
INDY TWR:120.9
UNICOM:122.95

KIND Zoom In..

If you have problems with the map follow the link
https://www.worldairports.se/pages/airport.php?
ICAO=KIND

Runways:

(A) RW 05L length 11200 ft width 150 ft
ILS 111.75 / hdg 47

(B) RW 05R length 10000 ft width 150 ft
ILS 111.15 / hdg 47

(C) RW 14 length 7280 ft width 150 ft
ILS 110.50 / hdg 137

(D) RW 23L length 10000 ft width 150 ft
ILS 111.15 / hdg 227

(E) RW 23R length 11200 ft width 150 ft
ILS 111.75 / hdg 227

(F) RW 32 length 7280 ft width 150 ft
ILS 110.50 / hdg 317

Location; KIND
Day. 18 / Time. 01.54 Zulu
* Altimeter: 29.84
* Temperature: -01° c. -30.2°f.
* Wind from: 270° Speed 09 kn.
Dewpoint: -02° c.
Visibility: 8 Statute Miles.
Clouds: Overcast 900 ft.

KIND 180154Z 27009KT 8SM OVC009 M01/M02 A2984 RMK AO2 FZDZE24 SLP114 P0000 I1000 T10061017


Wind From 270°
Speed 09 kn.

 
 
jpsmedia.com for Web Design worldairports.se 2019   terms of use